When you browse on this site, cookies collect data to enhance your experience and personalize the content and advertising you see.
Visit our Privacy Policy to learn more. By continuing to use the site, you agree to this use of cookies and data.
  • In Hungary
  • List of Countries
  • For 7 days
  • Water Temperature
  • Weather Map
  • News
  • Weather Widgets
  • user-avatar
    Login

    Hourly Weather Litvinov

    Today, 18 August, Sunday

    Time Temperature Precipitation Wind Pressure Humidity
    00:00 +17°C° 0 mm 2 mps 719 mmHg 79%
    01:00 +18°C° 0 mm 1 mps 719 mmHg 84%
    02:00 +18°C° 0.1 mm 1 mps 719 mmHg 86%
    03:00 +18°C° 0.1 mm 1 mps 719 mmHg 88%
    04:00 +16°C° 0.1 mm 2 mps 719 mmHg 90%
    05:00 +17°C° 0.1 mm 2 mps 719 mmHg 91%
    06:00 +17°C° 0.1 mm 2 mps 718 mmHg 91%
    07:00 +17°C° 0 mm 2 mps 718 mmHg 88%
    08:00 +19°C° 0 mm 3 mps 718 mmHg 81%
    09:00 +20°C° 0 mm 3 mps 718 mmHg 73%
    10:00 +22°C° 0 mm 4 mps 719 mmHg 65%
    11:00 +25°C° 0 mm 5 mps 718 mmHg 61%
    12:00 +27°C° 0 mm 5 mps 718 mmHg 56%
    13:00 +28°C° 0 mm 6 mps 718 mmHg 51%
    14:00 +29°C° 0 mm 5 mps 718 mmHg 51%
    15:00 +29°C° 0 mm 5 mps 718 mmHg 50%
    16:00 +29°C° 0 mm 5 mps 718 mmHg 50%
    17:00 +27°C° 0.1 mm 4 mps 718 mmHg 57%
    18:00 +26°C° 0.1 mm 3 mps 718 mmHg 64%
    19:00 +24°C° 0.1 mm 2 mps 718 mmHg 71%
    20:00 +23°C° 0.7 mm 2 mps 718 mmHg 76%
    21:00 +21°C° 0.7 mm 2 mps 719 mmHg 81%
    22:00 +20°C° 0.7 mm 3 mps 719 mmHg 85%
    23:00 +19°C° 0.5 mm 2 mps 719 mmHg 86%

    Tomorrow, 19 August, Monday

    Time Temperature Precipitation Wind Pressure Humidity
    00:00 +19°C° 0.5 mm 2 mps 719 mmHg 87%
    01:00 +19°C° 0.5 mm 2 mps 720 mmHg 89%
    02:00 +18°C° 0.2 mm 2 mps 720 mmHg 89%
    03:00 +18°C° 0.2 mm 2 mps 720 mmHg 90%
    04:00 +18°C° 0.2 mm 2 mps 720 mmHg 91%
    05:00 +18°C° 0.4 mm 2 mps 721 mmHg 91%
    06:00 +18°C° 0.4 mm 2 mps 721 mmHg 91%
    07:00 +18°C° 0.4 mm 2 mps 721 mmHg 91%
    08:00 +18°C° 1.1 mm 2 mps 722 mmHg 89%
    09:00 +18°C° 1.1 mm 2 mps 722 mmHg 88%
    10:00 +19°C° 1.1 mm 3 mps 723 mmHg 86%
    11:00 +19°C° 0.3 mm 3 mps 723 mmHg 80%
    12:00 +20°C° 0.3 mm 3 mps 724 mmHg 74%
    13:00 +21°C° 0.3 mm 2 mps 724 mmHg 67%
    14:00 +23°C° 0 mm 2 mps 724 mmHg 61%
    15:00 +23°C° 0 mm 2 mps 724 mmHg 55%
    16:00 +24°C° 0 mm 2 mps 724 mmHg 49%
    17:00 +23°C° 0 mm 2 mps 724 mmHg 54%
    18:00 +21°C° 0 mm 1 mps 724 mmHg 59%
    19:00 +19°C° 0 mm 1 mps 724 mmHg 64%
    20:00 +19°C° 0 mm 1 mps 724 mmHg 65%
    21:00 +18°C° 0 mm 1 mps 725 mmHg 65%
    22:00 +15°C° 0 mm 0 mps 725 mmHg 65%
    23:00 +15°C° 0 mm 0 mps 725 mmHg 66%

    Day after tomorrow, 20 August, Tuesday

    Time Temperature Precipitation Wind Pressure Humidity
    00:00 +16°C° 0 mm 1 mps 725 mmHg 66%
    01:00 +16°C° 0 mm 1 mps 725 mmHg 66%
    02:00 +14°C° 0 mm 0 mps 725 mmHg 66%
    03:00 +14°C° 0 mm 0 mps 725 mmHg 67%
    04:00 +14°C° 0 mm 0 mps 725 mmHg 67%
    05:00 +15°C° 0 mm 0 mps 725 mmHg 68%
    06:00 +15°C° 0 mm 0 mps 725 mmHg 69%
    07:00 +16°C° 0 mm 0 mps 725 mmHg 70%
    08:00 +19°C° 0.1 mm 1 mps 726 mmHg 70%
    09:00 +20°C° 0.1 mm 1 mps 726 mmHg 70%
    10:00 +21°C° 0.1 mm 1 mps 726 mmHg 70%
    11:00 +21°C° 0.5 mm 1 mps 726 mmHg 71%
    12:00 +22°C° 0.5 mm 1 mps 726 mmHg 72%
    13:00 +22°C° 0.5 mm 1 mps 726 mmHg 73%
    14:00 +20°C° 0.5 mm 2 mps 725 mmHg 76%
    15:00 +19°C° 0.5 mm 2 mps 725 mmHg 79%
    16:00 +18°C° 0.5 mm 2 mps 725 mmHg 82%
    17:00 +17°C° 1.1 mm 3 mps 725 mmHg 84%
    18:00 +16°C° 1.1 mm 3 mps 725 mmHg 86%
    19:00 +14°C° 1.1 mm 4 mps 725 mmHg 88%
    20:00 +14°C° 1.5 mm 4 mps 726 mmHg 90%
    21:00 +13°C° 1.5 mm 3 mps 726 mmHg 92%
    22:00 +13°C° 1.5 mm 3 mps 727 mmHg 94%
    23:00 +14°C° 1.9 mm 2 mps 727 mmHg 94%

    21 August, Wednesday

    Time Temperature Precipitation Wind Pressure Humidity
    00:00 +14°C° 1.9 mm 2 mps 727 mmHg 94%
    01:00 +13°C° 1.9 mm 1 mps 727 mmHg 94%
    02:00 +13°C° 0.7 mm 1 mps 728 mmHg 94%
    03:00 +13°C° 0.7 mm 1 mps 728 mmHg 94%
    04:00 +13°C° 0.7 mm 1 mps 728 mmHg 94%
    05:00 +14°C° 0.3 mm 1 mps 728 mmHg 94%
    06:00 +14°C° 0.3 mm 1 mps 729 mmHg 93%
    07:00 +14°C° 0.3 mm 1 mps 729 mmHg 92%
    08:00 +15°C° 0.1 mm 1 mps 729 mmHg 87%
    09:00 +16°C° 0.1 mm 2 mps 730 mmHg 82%
    10:00 +17°C° 0.1 mm 2 mps 730 mmHg 77%
    11:00 +18°C° 0.1 mm 2 mps 730 mmHg 72%
    12:00 +19°C° 0.1 mm 3 mps 730 mmHg 66%
    13:00 +20°C° 0.1 mm 3 mps 730 mmHg 60%
    14:00 +20°C° 0 mm 3 mps 730 mmHg 59%
    15:00 +20°C° 0 mm 3 mps 730 mmHg 57%
    16:00 +20°C° 0 mm 2 mps 730 mmHg 55%
    17:00 +19°C° 0 mm 2 mps 729 mmHg 61%
    18:00 +17°C° 0 mm 2 mps 729 mmHg 66%
    19:00 +16°C° 0 mm 1 mps 729 mmHg 72%
    20:00 +15°C° 0 mm 1 mps 729 mmHg 73%
    21:00 +14°C° 0 mm 1 mps 729 mmHg 75%
    22:00 +14°C° 0 mm 1 mps 730 mmHg 76%
    23:00 +13°C° 0 mm 1 mps 730 mmHg 76%

    22 August, Thursday

    Time Temperature Precipitation Wind Pressure Humidity
    00:00 +13°C° 0 mm 1 mps 730 mmHg 76%
    01:00 +13°C° 0 mm 1 mps 729 mmHg 77%
    02:00 +13°C° 0 mm 1 mps 729 mmHg 78%
    03:00 +13°C° 0 mm 1 mps 729 mmHg 80%
    04:00 +12°C° 0 mm 1 mps 729 mmHg 82%
    05:00 +13°C° 0 mm 1 mps 729 mmHg 80%
    06:00 +14°C° 0 mm 1 mps 729 mmHg 77%
    07:00 +15°C° 0 mm 1 mps 730 mmHg 75%
    08:00 +18°C° 0 mm 1 mps 730 mmHg 69%
    09:00 +19°C° 0 mm 1 mps 730 mmHg 64%
    10:00 +21°C° 0 mm 1 mps 730 mmHg 59%
    11:00 +22°C° 0 mm 1 mps 730 mmHg 56%
    12:00 +23°C° 0 mm 1 mps 730 mmHg 53%
    13:00 +23°C° 0 mm 1 mps 729 mmHg 50%
    14:00 +23°C° 0 mm 1 mps 729 mmHg 51%
    15:00 +23°C° 0 mm 1 mps 729 mmHg 51%
    16:00 +23°C° 0 mm 1 mps 729 mmHg 51%
    17:00 +22°C° 0 mm 1 mps 729 mmHg 58%
    18:00 +20°C° 0 mm 1 mps 729 mmHg 65%
    19:00 +19°C° 0 mm 1 mps 729 mmHg 72%
    20:00 +18°C° 0 mm 1 mps 729 mmHg 75%
    21:00 +16°C° 0 mm 1 mps 729 mmHg 78%
    22:00 +15°C° 0 mm 1 mps 730 mmHg 82%
    23:00 +15°C° 0 mm 1 mps 730 mmHg 84%

    23 August, Friday

    Time Temperature Precipitation Wind Pressure Humidity
    00:00 +15°C° 0 mm 1 mps 730 mmHg 85%
    01:00 +13°C° 0 mm 0 mps 730 mmHg 87%
    02:00 +13°C° 0 mm 0 mps 730 mmHg 88%
    03:00 +13°C° 0 mm 0 mps 729 mmHg 88%
    04:00 +12°C° 0 mm 0 mps 729 mmHg 89%
    05:00 +13°C° 0 mm 0 mps 730 mmHg 86%
    06:00 +15°C° 0 mm 1 mps 730 mmHg 84%
    07:00 +16°C° 0 mm 1 mps 730 mmHg 81%
    08:00 +19°C° 0 mm 1 mps 730 mmHg 74%
    09:00 +19°C° 0 mm 2 mps 730 mmHg 67%
    10:00 +21°C° 0 mm 2 mps 731 mmHg 59%
    11:00 +22°C° 0 mm 3 mps 730 mmHg 56%
    12:00 +22°C° 0 mm 3 mps 730 mmHg 52%
    13:00 +24°C° 0 mm 3 mps 730 mmHg 49%
    14:00 +24°C° 0 mm 3 mps 730 mmHg 50%
    15:00 +24°C° 0 mm 3 mps 729 mmHg 50%
    16:00 +24°C° 0 mm 3 mps 729 mmHg 51%
    17:00 +21°C° 0 mm 3 mps 729 mmHg 58%
    18:00 +20°C° 0 mm 3 mps 728 mmHg 64%
    19:00 +18°C° 0 mm 2 mps 728 mmHg 71%
    20:00 +17°C° 0 mm 2 mps 728 mmHg 71%
    21:00 +16°C° 0 mm 2 mps 728 mmHg 71%
    22:00 +15°C° 0 mm 2 mps 728 mmHg 71%
    23:00 +15°C° 0 mm 2 mps 728 mmHg 72%
    Show more